Date String (YYYY-MM-DD hh:mm:ss) UTC,Instrument flags,Ambient pressure (hPa),Sample flow (lpm),Bypass flow (lpm),Sample temperature (°C),Ambient temperature (°C),ASC tube jacket temperature (°C),LED temperature (°C),Box temperature (°C),Sample RH (%),Span deviation,Mass concentration (μg/m³),Mass concentration (μg/m³),Mass concentration (μg/m³)
DateTimeUTC,F1_M11,P_M11,Q1_M11,Q2_M11,T1_M11,T2_M11,T3_M11,T4_M11,T5_M11,U1_M11,ZSPAN_M11,X2_M11,X0_M11,X1_M11
2023-02-03 03:00:00,,0833.3,5.00,0.00,26.5,24.8,00.0,35.5,28.3,09.6,0000.0,0012.39,0021.00,0011.44
2023-02-03 03:01:00,,0833.3,5.02,0.00,26.5,24.8,00.0,35.4,28.3,09.6,0000.4,0012.38,0022.60,0011.44
2023-02-03 03:02:00,,0833.3,4.99,0.00,26.5,24.8,00.0,35.4,28.3,09.6,0000.4,0012.31,0022.55,0011.39
2023-02-03 03:03:00,,0833.3,4.98,0.00,26.5,24.8,00.0,35.4,28.2,09.6,0000.3,0012.20,0021.87,0011.33
2023-02-03 03:04:00,,0833.3,5.00,0.00,26.5,24.8,00.0,35.4,28.2,09.6,0000.8,0012.03,0020.84,0011.18
2023-02-03 03:05:00,,0833.3,5.00,0.00,26.5,24.7,00.0,35.4,28.2,09.6,0001.8,0011.87,0020.49,0011.01
2023-02-03 03:06:00,,0833.2,5.02,0.00,26.4,24.5,00.0,35.4,28.1,09.6,0002.7,0011.63,0019.85,0010.82
2023-02-03 03:07:00,,0833.3,5.00,0.00,26.4,24.4,00.0,35.4,28.1,09.6,0002.4,0011.47,0019.53,0010.67
2023-02-03 03:08:00,,0833.3,5.01,0.00,26.3,24.4,00.0,35.3,28.1,09.7,0001.3,0011.37,0019.51,0010.57
2023-02-03 03:09:00,,0833.3,4.98,0.00,26.3,24.3,00.0,35.3,28.0,09.7,0000.2,0011.21,0019.26,0010.42
2023-02-03 03:10:00,,0833.3,4.97,0.00,26.3,24.3,00.0,35.3,28.0,09.7,0000.0,0010.92,0019.02,0010.15
2023-02-03 03:11:00,,0833.3,5.02,0.00,26.3,24.3,00.0,35.3,28.0,09.7,0000.0,0010.61,0017.88,0009.86
2023-02-03 03:12:00,,0833.2,5.01,0.00,26.3,24.4,00.0,35.2,28.0,09.7,0000.0,0010.41,0016.48,0009.67
2023-02-03 03:13:00,,0833.3,5.01,0.00,26.3,24.4,00.0,35.2,28.0,09.7,0000.0,0010.32,0016.10,0009.60
2023-02-03 03:14:00,,0833.3,5.01,0.00,26.2,24.5,00.0,35.2,28.0,09.7,0000.0,0010.25,0016.16,0009.53
2023-02-03 03:15:00,,0833.2,5.02,0.00,26.2,24.5,00.0,35.2,28.0,09.7,0000.0,0010.11,0016.02,0009.37
2023-02-03 03:16:00,,0833.3,5.00,0.00,26.2,24.5,00.0,35.2,28.0,09.7,0000.0,0009.92,0015.86,0009.19
2023-02-03 03:17:00,,0833.3,4.95,0.00,26.2,24.5,00.0,35.2,28.0,09.7,0000.0,0009.82,0015.90,0009.08
2023-02-03 03:18:00,,0833.4,5.01,0.00,26.2,24.6,00.0,35.1,28.0,09.7,0000.0,0009.74,0015.71,0009.02
2023-02-03 03:19:00,,0833.4,5.01,0.00,26.2,24.6,00.0,35.1,28.0,09.7,0000.0,0009.59,0015.34,0008.91
2023-02-03 03:20:00,,0833.3,5.02,0.00,26.2,24.6,00.0,35.1,27.9,09.7,0000.0,0009.51,0015.03,0008.82
2023-02-03 03:21:00,,0833.3,5.00,0.00,26.2,24.5,00.0,35.1,27.9,09.8,0000.0,0009.43,0015.75,0008.78
2023-02-03 03:22:00,,0833.3,4.99,0.00,26.2,24.5,00.0,35.1,27.9,09.8,0000.0,0009.35,0015.75,0008.71
2023-02-03 03:23:00,,0833.3,4.96,0.00,26.1,24.5,00.0,35.1,27.9,09.8,0000.0,0009.23,0014.91,0008.57
2023-02-03 03:24:00,,0833.3,5.01,0.00,26.1,24.5,00.0,35.1,27.8,09.8,0000.0,0009.16,0014.76,0008.47
2023-02-03 03:25:00,,0833.3,5.01,0.00,26.1,24.4,00.0,35.1,27.8,09.8,0000.2,0009.06,0014.66,0008.34
2023-02-03 03:26:00,,0833.3,5.00,0.00,26.1,24.4,00.0,35.0,27.8,09.8,0000.3,0008.90,0015.22,0008.19
2023-02-03 03:27:00,,0833.3,5.01,0.00,26.1,24.4,00.0,35.0,27.8,09.8,0000.0,0008.72,0015.33,0008.03
2023-02-03 03:28:00,,0833.3,5.00,0.00,26.0,24.4,00.0,35.0,27.7,09.9,-000.1,0008.51,0015.00,0007.87
2023-02-03 03:29:00,,0833.3,5.00,0.00,26.0,24.3,00.0,35.0,27.7,09.9,0000.2,0008.31,0014.77,0007.70
2023-02-03 03:30:00,,0833.3,4.98,0.00,26.0,24.3,00.0,35.0,27.7,09.9,0000.0,0008.05,0014.46,0007.46
2023-02-03 03:31:00,,0833.3,4.97,0.00,26.0,24.3,00.0,35.0,27.7,09.8,0000.0,0007.80,0014.18,0007.23
2023-02-03 03:32:00,,0833.3,5.02,0.00,26.0,24.3,00.0,34.9,27.7,09.8,0000.0,0007.61,0013.02,0007.02
2023-02-03 03:33:00,,0833.4,5.01,0.00,26.0,24.3,00.0,34.9,27.7,09.8,0000.0,0007.46,0012.74,0006.86
2023-02-03 03:34:00,,0833.5,5.00,0.00,25.9,24.2,00.0,34.9,27.6,09.8,0000.0,0007.38,0012.75,0006.77
2023-02-03 03:35:00,,0833.4,5.02,0.00,25.9,24.1,00.0,34.9,27.6,09.8,0000.0,0007.25,0012.56,0006.66
2023-02-03 03:36:00,,0833.5,5.01,0.00,25.9,24.1,00.0,34.9,27.5,09.8,0000.0,0007.12,0011.99,0006.58
2023-02-03 03:37:00,,0833.5,5.00,0.00,25.8,24.1,00.0,34.9,27.5,09.8,0000.0,0007.05,0011.85,0006.53
2023-02-03 03:38:00,,0833.4,5.00,0.00,25.8,24.1,00.0,34.8,27.5,09.8,0000.0,0007.05,0011.64,0006.49
2023-02-03 03:39:00,,0833.4,4.99,0.00,25.8,24.0,00.0,34.8,27.5,09.9,0000.0,0007.03,0011.54,0006.45
2023-02-03 03:40:00,,0833.4,4.98,0.00,25.7,23.8,00.0,34.8,27.4,09.9,0000.0,0007.03,0011.76,0006.43
2023-02-03 03:41:00,,0833.4,4.99,0.00,25.7,23.6,00.0,34.8,27.3,09.9,0000.0,0007.07,0012.43,0006.47
2023-02-03 03:42:00,,0833.3,5.02,0.00,25.6,23.4,00.0,34.7,27.3,10.0,0000.0,0007.02,0012.54,0006.45
2023-02-03 03:43:00,,0833.3,5.01,0.00,25.6,23.5,00.0,34.7,27.2,10.0,0000.0,0007.00,0012.51,0006.44
2023-02-03 03:44:00,,0833.3,5.02,0.00,25.6,23.5,00.0,34.7,27.2,10.0,0000.0,0006.95,0012.54,0006.42
2023-02-03 03:45:00,,0833.4,5.00,0.00,25.5,23.5,00.0,34.6,27.2,10.0,0000.0,0006.92,0012.76,0006.40
2023-02-03 03:46:00,,0833.4,5.00,0.00,25.5,23.4,00.0,34.6,27.1,10.0,0000.0,0006.88,0013.02,0006.36
2023-02-03 03:47:00,,0833.4,5.01,0.00,25.4,23.3,00.0,34.6,27.1,10.0,0000.0,0006.88,0013.21,0006.30
2023-02-03 03:48:00,,0833.4,5.01,0.00,25.4,23.4,00.0,34.5,27.1,10.1,0000.0,0006.87,0012.47,0006.24
2023-02-03 03:49:00,,0833.5,5.01,0.00,25.4,23.4,00.0,34.5,27.0,10.1,0000.0,0006.90,0012.34,0006.27
2023-02-03 03:50:00,,0833.4,5.01,0.00,25.3,23.3,00.0,34.5,27.0,10.1,0000.0,0006.84,0012.25,0006.23
2023-02-03 03:51:00,,0833.4,4.99,0.00,25.3,23.2,00.0,34.5,26.9,10.1,0000.0,0006.79,0012.40,0006.18
2023-02-03 03:52:00,,0833.4,5.00,0.00,25.3,23.1,00.0,34.4,26.9,10.1,0000.0,0006.76,0012.14,0006.14
2023-02-03 03:53:00,,0833.3,5.00,0.00,25.2,22.8,00.0,34.4,26.8,10.1,0000.0,0006.83,0012.54,0006.15
2023-02-03 03:54:00,,0833.2,5.01,0.00,25.1,22.7,00.0,34.4,26.7,10.2,0000.0,0006.83,0013.26,0006.14
2023-02-03 03:55:00,,0833.2,5.00,0.00,25.1,22.6,00.0,34.3,26.7,10.2,0000.0,0006.89,0013.32,0006.17
2023-02-03 03:56:00,,0833.2,5.00,0.00,25.0,22.5,00.0,34.3,26.6,10.3,0000.0,0007.03,0013.51,0006.29
2023-02-03 03:57:00,,0833.2,5.00,0.00,24.9,22.3,00.0,34.2,26.5,10.4,0000.0,0007.16,0013.24,0006.47
2023-02-03 03:58:00,,0833.1,4.99,0.00,24.9,22.2,00.0,34.2,26.4,10.4,0000.0,0007.25,0013.13,0006.61
2023-02-03 03:59:00,,0833.1,5.00,0.00,24.8,22.2,00.0,34.1,26.4,10.4,0000.0,0007.32,0013.16,0006.70
